Location: Newark
(11.0594°S, 77.5318°W)
Time: 14:12:25
(UTC+00:00)

Envisat - Visible Passes

Search period start: 23 July 2019 00:00
Search period end: 02 August 2019 00:00
Orbit: 764 x 766 km, 98.1° (Epoch: 23 July)

Date Brightness Start Highest point End Pass type
(mag) Time Alt. Az. Time Alt. Az. Time Alt. Az.
23 Jul 4.5 00:36:57 10° SSW 00:41:33 34° WSW 00:46:06 10° NW visible
23 Jul 2.9 23:59:48 10° SSE 00:04:55 84° ENE 00:09:59 10° N visible
24 Jul 5.6 10:59:22 10° ENE 11:03:08 21° ESE 11:06:55 10° SSE visible
24 Jul 3.9 23:23:49 10° SE 23:28:12 29° E 23:32:35 10° NNE visible
25 Jul 5.6 01:03:40 10° SW 01:06:55 17° WSW 01:10:08 10° WNW visible
26 Jul 4.0 00:25:29 10° S 00:30:21 47° WSW 00:35:12 10° NNW visible
26 Jul 3.0 23:48:39 10° SSE 23:53:42 62° ENE 23:58:41 10° N visible
27 Jul 5.8 10:49:00 10° ENE 10:51:58 16° ESE 10:54:56 10° SE visible
28 Jul 5.2 00:51:47 10° SSW 00:55:44 23° WSW 00:59:40 10° NW visible
29 Jul 3.4 00:14:06 10° S 00:19:09 64° WSW 00:24:10 10° NNW visible
29 Jul 3.3 23:37:37 10° SSE 23:42:28 45° E 23:47:17 10° N visible
30 Jul 5.9 01:19:49 10° WSW 01:21:03 11° WSW 01:22:18 10° W visible
30 Jul 6.0 10:39:17 10° E 10:40:48 11° ESE 10:42:20 10° SE visible
31 Jul 4.7 00:40:07 10° SSW 00:44:33 31° WSW 00:48:58 10° NW visible
01 Aug 3.0 00:02:49 10° S 00:07:56 87° WSW 00:13:00 10° NNW visible
01 Aug 5.5 11:02:08 10° NE 11:06:08 24° ESE 11:10:09 10° SSE visible
01 Aug 3.7 23:26:41 10° SE 23:31:14 33° E 23:35:45 10° NNE visible
